Regional Weather Roundup
Issued by NWS

Home | Current Version | Previous Version | Graphics & Text | Print | Product List | Glossary On
Versions: 1 2 3 4 5 6 7 8 9 10 11 12 13 14 15 16 17 18 19 20 21 22 23 24 25 26 27 28 29 30 31 32 33 34 35 36 37 38 39 40 41 42 43 44 45 46 47 48 49 50
000
ASUS43 KDMX 022104
RWRIA

WEATHER ROUNDUP FOR IOWA
NATIONAL WEATHER SERVICE DES MOINES IA
  ISSUED BY NWS QUAD CITIES IA IL
300 PM CST MON MAR 02 2015

NOTE: "FAIR" INDICATES FEW OR NO CLOUDS BELOW 12,000 FEET WITH NO
SIGNIFICANT WEATHER AND/OR OBSTRUCTIONS TO VISIBILITY.

* - THESE STATIONS ARE NOT NWS STATIONS...THUS NOT UNDER NWS
QUALITY CONTROL.  THEY ALSO DO NOT REPORT WEATHER SUCH
AS PRECIPITATION OR FOG.

IAZ001>003-012>014-020>022-031>034-043>046-022200-
   NORTHWEST IOWA

CITY           SKY/WX    TMP DP  RH WIND       PRES   REMARKS
CARROLL *      CLOUDY    32  19  59 SE15      30.27F WCI  22
CHEROKEE *     CLOUDY    30  19  62 S12       30.24F WCI  21
DENNISON *     CLOUDY    32  21  64 SE15      30.23F WCI  22
LE MARS *      CLOUDY    32  18  55 S17G23    30.21F WCI  21
ORANGE CITY *  CLOUDY    30  16  55 S12       30.20F WCI  21
SHELDON *      CLOUDY    28  18  64 SE21      30.19F WCI  15
SIOUX CITY     CLOUDY    34  20  56 S15       30.21F WCI  24
SPENCER        CLOUDY    28  18  66 SE16      30.24F WCI  16
STORM LAKE *   CLOUDY    28  19  69 SE15      30.24F WCI  17
$$

IAZ055>058-069>071-079>083-090>094-022200-
   SOUTHWEST IOWA

CITY           SKY/WX    TMP DP  RH WIND       PRES   REMARKS
ATLANTIC *     CLOUDY    37  19  48 S13       30.25F WCI  29
AUDUBON *      PTSUNNY   34  19  55 SE9       30.27F WCI  26
CLARINDA *     CLOUDY    39  18  41 S10G17    30.29F WCI  32
COUNCIL BLFS * CLOUDY    39  21  48 S18       30.20F WCI  30
CRESTON *      CLOUDY    36  16  44 SE12G18   30.29F WCI  27
HARLAN *       CLOUDY    36  23  60 SE12G17   30.27F WCI  27
LAMONI         PTSUNNY   35  18  49 S10       30.31F WCI  27
RED OAK *      CLOUDY    41  18  38 S13G23    30.25F WCI  34
SHENANDOAH *   CLOUDY    41  19  42 SE17      30.26F WCI  32
$$

IAZ047>049-059>061-072>074-084-022200-
   CENTRAL IOWA

CITY           SKY/WX    TMP DP  RH WIND       PRES   REMARKS
AMES           CLOUDY    27  16  63 SE10      30.33F WCI  17
ANKENY *       CLOUDY    30  18  59 SE12      30.34F WCI  21
BOONE *        CLOUDY    28  19  69 SE14      30.30F WCI  17
CHARITON *     CLOUDY    34  18  51 SE10      30.33F WCI  26
DES MOINES     CLOUDY    31  15  52 SE10      30.34F WCI  22
GRINNELL *     CLOUDY    26  16  66 E8        30.37F WCI  17
KNOXVILLE *    CLOUDY    30  16  55 SE8       30.34F WCI  23
MARSHALLTOWN   CLOUDY    24  15  68 E9        30.35F WCI  14
NEWTON *       CLOUDY    27  16  63 SE8       30.36F WCI  18
PELLA *        MOSUNNY   31  20  65 SE9       30.38F WCI  23
PERRY *          N/A     31  19  62 SE13      30.31F WCI  21
$$

IAZ004>006-015-016-023>025-035-036-022200-
   NORTH CENTRAL IOWA

CITY           SKY/WX    TMP DP  RH WIND       PRES   REMARKS
ALGONA *       CLOUDY    25  19  80 S13       30.29F WCI  13
CLARION *      CLOUDY    25  21  86 SE13      30.31F WCI  13
ESTHERVILLE    CLOUDY    24  17  74 S15       30.25F WCI  11
FORT DODGE *   CLOUDY    27  18  69 SE10      30.30F WCI  17
MASON CITY     CLOUDY    21  14  74 S9        30.33F WCI  11
FOREST CITY *  CLOUDY    25  14  63 SE10      30.30F WCI  15
WEBSTER CITY * CLOUDY    27  19  74 SE12      30.29F WCI  16
IOWA FALLS *   CLOUDY    24  15  69 SE8       30.35F WCI  15
$$

IAZ007>011-017>019-026>030-037>042-050>054-066-022200-
   NORTHEAST IOWA

CITY           SKY/WX    TMP DP  RH WIND       PRES   REMARKS
CEDAR RAPIDS   CLOUDY    25  13  60 SE3       30.38F
CHARLES CITY * CLOUDY    21  12  68 SE7       30.36F WCI  13
CLINTON *      MOSUNNY   27  16  63 S6        30.44F WCI  20
DECORAH *      PTSUNNY   23  10  58 VRB6      30.35F WCI  16
DUBUQUE        PTSUNNY   25  14  63 S5        30.38F WCI  19
MONTICELLO *   PTSUNNY   25  14  63 CALM      30.40F
OELWEIN *      PTSUNNY   21  12  68 CALM      30.37F
WATERLOO       CLOUDY    23  15  71 NE8       30.37F WCI  14
$$

IAZ064-065-067-068-078-022200-
   EAST CENTRAL IOWA

CITY           SKY/WX    TMP DP  RH WIND       PRES   REMARKS
DAVENPORT      PTSUNNY   26  16  65 NE7       30.41F WCI  18
IOWA CITY      CLOUDY    25  15  66 SE8       30.42F WCI  16
MT. PLEASANT * CLOUDY    28  15  59 N3        30.41F
MUSCATINE *    CLOUDY    28  16  59 SW3       30.43F
QUAD CITIES    PTSUNNY   27  16  63 SE8       30.42F WCI  19
$$

IAZ062-063-075>077-085>089-095>099-022200-
   SOUTHEAST IOWA

CITY           SKY/WX    TMP DP  RH WIND       PRES   REMARKS
BURLINGTON     CLOUDY    29  17  61 SE6       30.40F WCI  23
FAIRFIELD *    CLOUDY    28  16  59 SE8       30.39F WCI  20
FORT MADISON * CLOUDY    28  16  59 SE6       30.41F WCI  22
KEOKUK *       PTSUNNY   30  16  55 E7        30.40F WCI  23
OSKALOOSA *    CLOUDY    28  16  60 SE9       30.38F WCI  20
CENTERVILLE *  FAIR      34  18  51 SE7       30.36F WCI  28
OTTUMWA        CLOUDY    29  15  56 E7        30.36F WCI  22
WASHINGTON *   CLOUDY    28  19  69 E8        30.40F WCI  20
$$

ABBREVIATIONS USED IN REMARKS
   TC - TEMPERATURES IN CELSIUS
  WCI - WIND CHILL INDEX
   HX - HEAT INDEX
  VSB - VISIBILITY
$$


USA.gov is the U.S. government's official web portal to all federal, state and local government web resources and services.